Regional Weather Roundup
Issued by NWS Columbia, SC

Home | Current Version | Previous Version | Text Only | Print | Product List | Glossary On
Versions: 1 2 3 4 5 6 7 8 9 10 11 12 13 14 15 16 17 18 19 20 21 22 23 24 25 26 27 28 29 30 31 32 33 34 35 36 37 38 39 40 41 42 43 44 45 46 47 48 49 50
000
ASUS42 KCAE 011210
RWRCAE
REGIONAL WEATHER ROUNDUP
NATIONAL WEATHER SERVICE COLUMBIA SC
800 AM EDT FRI AUG 01 2014

NOTE: "FAIR" INDICATES FEW OR NO CLOUDS BELOW 12,000 FEET WITH NO
SIGNIFICANT WEATHER AND/OR OBSTRUCTIONS TO VISIBILITY.

NOT ALL STATIONS ARE QUALITY CONTROLLED BY THE NATIONAL
WEATHER SERVICE. USE DATA WITH CAUTION...ESPECIALLY
DEWPOINT OBSERVATIONS.

SCZ001>056-GAZ040-063>065-077-011300-
...UPSTATE SOUTH CAROLINA...

CITY           SKY/WX    TMP DP  RH WIND       PRES   REMARKS
ANDERSON       LGT RAIN  66  65  96 NE7       30.10R
6HR MIN TEMP:  66; 6HR MAX TEMP:  66; 6HR PCP:  0.17;

LIBERTY        PTSUNNY   64  32  29 NE7       30.10S
6HR MIN TEMP:  56; 6HR MAX TEMP:  91;

SPARTANBURG    LGT RAIN  64  64 100 NE10      30.10S
CLEMSON        CLOUDY    68  63  84 E8        30.11R
6HR MIN TEMP:  67; 6HR MAX TEMP:  68; 6HR PCP:  0.01;

GREENVILLE     CLOUDY    63  61  93 NE13      30.11R
6HR MIN TEMP:  63; 6HR MAX TEMP:  66; 6HR PCP:  0.29;

GREENWOOD      RAIN      66  64  93 N6        30.10S FOG
6HR MIN TEMP:  66; 6HR MAX TEMP:  68; 6HR PCP:  0.14;

GREER          LGT RAIN  64  62  93 NE9       30.10R
6HR MIN TEMP:  63; 6HR MAX TEMP:  66; 6HR PCP:  1.65;

ROCK HILL      HVY RAIN  66  66 100 VRB3      30.09R FOG
6HR MIN TEMP:  66; 6HR MAX TEMP:  68; 6HR PCP:  0.13;

CHESTER        CLOUDY    68  68 100 NW6       30.10R
LAURENS        RAIN      64 N/A N/A N7        30.10S


...CENTRAL SOUTH CAROLINA...

CITY           SKY/WX    TMP DP  RH WIND       PRES   REMARKS
COLUMBIA APT   LGT RAIN  73  69  87 NW6       30.04R FOG
6HR MIN TEMP:  73; 6HR MAX TEMP:  74; 6HR PCP: TRACE;

COLUMBIA OWENS CLOUDY    71  68  90 N5        30.05R FOG
6HR MIN TEMP:  71; 6HR MAX TEMP:  74;

DARLINGTON     PTSUNNY   72  68  88 E6        30.06R
6HR MIN TEMP:  72; 6HR MAX TEMP:  73;

FLORENCE       MOSUNNY   74  71  91 E8        30.04R
6HR MIN TEMP:  73; 6HR MAX TEMP:  74;

MCENTIRE ANGB  CLOUDY    73  73  99 NE3       30.04R FOG
6HR MIN TEMP:  70; 6HR MAX TEMP:  73;

ORANGEBURG     CLOUDY    73  71  93 CALM      30.03R FOG
6HR MIN TEMP:  72; 6HR MAX TEMP:  73;

SUMTER SHAW    CLOUDY    73  73 100 NE3       30.03R FOG
6HR MIN TEMP:  71; 6HR MAX TEMP:  73;

NEWBERRY       RAIN      64  64 100 N7        30.11R
AIKEN          CLOUDY    68  68 100 N5        30.09S
BARNWELL       FOG       73  72  94 N6        30.04R VSB 1/2
MANNING        PTSUNNY   73 N/A N/A CALM      30.02S
CAMDEN         CLOUDY    72  72 100 NE5       30.06R FOG
LANCASTER      LGT RAIN  68  68 100 NE6       30.07S
WINNSBORO      RAIN      68  68 100 W9        30.07R


...EASTERN AND COASTAL SOUTH CAROLINA...

CITY           SKY/WX    TMP DP  RH WIND       PRES   REMARKS
MYRTLE BEACH   LGT RAIN  79  72  78 E9        30.03R
N MYRTLE BCH   LGT RAIN  78  72  81 SE3       30.02F
6HR MIN TEMP:  77; 6HR MAX TEMP:  81; 6HR PCP:  0.02;

CONWAY           N/A     73  73 100 NE3       30.03S THUNDER
MARION         PTSUNNY   72  72 100 E5        30.05R
HARTSVILLE     CLOUDY    72  72 100 E6        30.06R
FLORENCE       MOSUNNY   74  71  91 E8        30.04R
6HR MIN TEMP:  73; 6HR MAX TEMP:  74;

DARLINGTON     PTSUNNY   72  68  88 E6        30.06R
6HR MIN TEMP:  72; 6HR MAX TEMP:  73;

CHARLESTON APT MOSUNNY   78  74  87 N3        30.00S
6HR MIN TEMP:  74; 6HR MAX TEMP:  78;

MOUNT PLEASANT LGT RAIN  77  77 100 CALM      29.99F
WALTERBORO     FOG       73 N/A N/A CALM      30.02S VSB 1/4
BEAUFORT       FOG       74  73  97 NE5       30.00S VSB 1/4
6HR MIN TEMP:  74; 6HR MAX TEMP:  75;



...EASTERN GEORGIA...

CITY           SKY/WX    TMP DP  RH WIND       PRES   REMARKS
AUGUSTA BUSH F CLOUDY    70  68  93 N10       30.03S
6HR MIN TEMP:  70; 6HR MAX TEMP:  72;

AUGUSTA DANIEL CLOUDY    69  66  90 N12       30.05S
6HR MIN TEMP:  69; 6HR MAX TEMP:  72;

THOMSON        CLOUDY    69  69 100 N5        30.10S
6HR MIN TEMP:  69; 6HR MAX TEMP:  73;

WASHINGTON     RAIN      68 N/A N/A NE6       30.07S
CLAXTON        FOG      N/A N/A N/A NE3       30.00S VSB 1/2
SYLVANIA       CLOUDY    74  74 100 N6        30.03R FOG
6HR MIN TEMP:  74; 6HR MAX TEMP:  75;

STATESBORO     CLOUDY    74  74 100 N5        30.01S FOG
6HR MIN TEMP:  73; 6HR MAX TEMP:  74;

SAVANNAH       FOG       75  73  93 N5        30.00R VSB 1/2
6HR MIN TEMP:  74; 6HR MAX TEMP:  76;



...SOUTHERN NORTH CAROLINA...

CITY           SKY/WX    TMP DP  RH WIND       PRES   REMARKS
CHARLOTTE      LGT RAIN  67  64  90 VRB7      30.10R
6HR MIN TEMP:  65; 6HR MAX TEMP:  68; 6HR PCP:  1.83;

MONROE         CLOUDY    68  66  93 NE10      30.08R
6HR MIN TEMP:  67; 6HR MAX TEMP:  69; 6HR PCP:  0.01;

WADESBORO      LGT RAIN  71  69  95 CALM      30.06S
6HR MIN TEMP:  68; 6HR MAX TEMP:  71; 6HR PCP:  0.90;

ROCKINGHAM       N/A     73  70  88 E9        30.07R
RUTHERFORDTON  RAIN      63  61  95 N6        30.14S
6HR MIN TEMP:  63; 6HR MAX TEMP:  64; 6HR PCP:  0.26;

ASHEVILLE      CLOUDY    63  58  83 NE3       30.17R
6HR MIN TEMP:  62; 6HR MAX TEMP:  63; 6HR PCP:  0.05;


$$



USA.gov is the U.S. government's official web portal to all federal, state and local government web resources and services.